Regional Weather Roundup
Issued by NWS

Home | Current Version | Previous Version | Graphics & Text | Print | Product List | Glossary On
Versions: 1 2 3 4 5 6 7 8 9 10 11 12 13 14 15 16 17 18 19 20 21 22 23 24 25 26 27 28 29 30 31 32 33 34 35 36 37 38 39 40 41 42 43 44 45 46 47 48 49 50
000
ASUS43 KTOP 220908
RWRKS

WEATHER ROUNDUP FOR KANSAS
NATIONAL WEATHER SERVICE GOODLAND KS
400 AM CDT SUN APR 22 2018

NOTE:  "FAIR" INDICATES FEW OR NO CLOUDS BELOW 12,000 FEET WITH NO
SIGNIFICANT WEATHER AND/OR OBSTRUCTIONS TO VISIBILITY.

KSZ001>006-013>018-027>032-041>047-221000-
NORTHWEST KANSAS

CITY           SKY/WX    TMP DP  RH WIND       PRES   REMARKS
GOODLAND       CLOUDY    37  36  96 CALM      30.19S FOG
HAYS           CLOUDY    42  41  96 N9        30.20R
HILL CITY      CLOUDY    42  41  96 N6        30.22R
RUSSELL        CLOUDY    42  42 100 NW12      30.16F FOG
$$

KSZ061>065-074>080-084>089-221000-
SOUTHWEST KANSAS

CITY           SKY/WX    TMP DP  RH WIND       PRES   REMARKS
DODGE CITY     CLOUDY    42  39  89 NW8       30.18S
ELKHART        CLOUDY    42  42  99 N3        30.21S
GARDEN CITY    MOCLDY    40  39  97 N12       30.19F WCI  33
GREAT BEND     CLOUDY    43  41  93 N12       30.17R
LIBERAL        PTCLDY    39  37  93 NW7       30.21R
PRATT          CLOUDY    42  39  92 N15       30.15R
$$

KSZ066>073-081>083-090>101-221000-
SOUTHEAST KANSAS

CITY           SKY/WX    TMP DP  RH WIND       PRES   REMARKS
CHANUTE        CLOUDY    49  45  86 NE12      30.02F
COFFEYVILLE    CLOUDY    49  47  93 N12       30.00F
HUTCHINSON     CLOUDY    44  42  93 N12       30.11S
MEDICINE LODGE   N/A     43  41  93 W9        30.14R
NEWTON         LGT RAIN  43  41  93 N15       30.09F
PARSONS        CLOUDY    49  46  90 N8        30.01F
WICHITA INTL   LGT RAIN  45  44  97 N13       30.08F
WICHITA JABRA  LGT RAIN  44  44 100 N13       30.07F
WICHITA MCCONL LGT RAIN  45  45 100 N14       30.07S
WINFIELD       CLOUDY    45  45 100 N13       30.06F
$$

KSZ007>012-019>026-033>040-048>060-102>105-221000-
NORTHEAST KANSAS

CITY           SKY/WX    TMP DP  RH WIND       PRES   REMARKS
CONCORDIA      CLOUDY    42  39  89 NW8       30.15F
EMPORIA        CLOUDY    46  40  79 N9        30.05F
LAWRENCE       CLOUDY    54  32  43 NE13      30.08F
MANHATTAN      CLOUDY    46  40  79 N5        30.11F
MARYSVILLE     CLOUDY    45  37  76 N7        30.14F
OLATHE IND     CLOUDY    52  35  52 NE9       30.08F
OLATHE EXE     CLOUDY    52  31  44 NE13      30.07F
SALINA         CLOUDY    45  43  93 N12       30.14S
TOPEKA BILLARD CLOUDY    51  37  58 NE8       30.09F
TOPEKA FORBES  CLOUDY    52  36  54 NE8       30.08F
$$




USA.gov is the U.S. government's official web portal to all federal, state and local government web resources and services.